When you browse on this site, cookies collect data to enhance your experience and personalize the content and advertising you see.
Visit our Privacy Policy to learn more. By continuing to use the site, you agree to this use of cookies and data.

Previsão horária em Abakanovo

Hoje, 28 Setembro, Segunda-feira

Tempo Temperatura Precipitação Vento Pressão Humidade
00:00 +11°C° 0.1 mm 3 m/s 743 mmHg 73%
01:00 +11°C° 0.1 mm 3 m/s 743 mmHg 76%
02:00 +11°C° 0.1 mm 3 m/s 742 mmHg 79%
03:00 +11°C° 0.3 mm 3 m/s 742 mmHg 78%
04:00 +10°C° 0.3 mm 3 m/s 742 mmHg 77%
05:00 +10°C° 0.3 mm 3 m/s 742 mmHg 76%
06:00 +10°C° 0 mm 4 m/s 742 mmHg 73%
07:00 +10°C° 0 mm 4 m/s 742 mmHg 71%
08:00 +10°C° 0 mm 4 m/s 741 mmHg 68%
09:00 +11°C° 0 mm 4 m/s 742 mmHg 69%
10:00 +11°C° 0 mm 4 m/s 742 mmHg 70%
11:00 +11°C° 0 mm 4 m/s 742 mmHg 71%
12:00 +12°C° 0 mm 4 m/s 742 mmHg 72%
13:00 +12°C° 0 mm 4 m/s 742 mmHg 72%
14:00 +13°C° 0 mm 4 m/s 742 mmHg 73%
15:00 +13°C° 0 mm 4 m/s 742 mmHg 76%
16:00 +12°C° 0 mm 4 m/s 742 mmHg 79%
17:00 +12°C° 0 mm 3 m/s 742 mmHg 82%
18:00 +11°C° 0 mm 3 m/s 742 mmHg 84%
19:00 +11°C° 0 mm 3 m/s 742 mmHg 87%
20:00 +10°C° 0 mm 3 m/s 742 mmHg 89%
21:00 +10°C° 0.1 mm 3 m/s 742 mmHg 90%
22:00 +12°C° 0.1 mm 2 m/s 742 mmHg 91%
23:00 +12°C° 0.1 mm 2 m/s 742 mmHg 92%

Amanhã, 29 Setembro, Terça-feira

Tempo Temperatura Precipitação Vento Pressão Humidade
00:00 +10°C° 0 mm 2 m/s 743 mmHg 93%
01:00 +10°C° 0 mm 2 m/s 743 mmHg 94%
02:00 +10°C° 0 mm 2 m/s 743 mmHg 94%
03:00 +10°C° 0 mm 2 m/s 743 mmHg 94%
04:00 +10°C° 0 mm 2 m/s 742 mmHg 94%
05:00 +12°C° 0 mm 2 m/s 742 mmHg 93%
06:00 +12°C° 0.1 mm 2 m/s 742 mmHg 93%
07:00 +11°C° 0.1 mm 3 m/s 743 mmHg 92%
08:00 +11°C° 0.1 mm 3 m/s 743 mmHg 92%
09:00 +12°C° 0 mm 2 m/s 743 mmHg 88%
10:00 +13°C° 0 mm 2 m/s 743 mmHg 84%
11:00 +14°C° 0 mm 2 m/s 743 mmHg 80%
12:00 +15°C° 0 mm 2 m/s 743 mmHg 73%
13:00 +16°C° 0 mm 2 m/s 743 mmHg 67%
14:00 +18°C° 0 mm 1 m/s 743 mmHg 60%
15:00 +16°C° 0 mm 1 m/s 743 mmHg 66%
16:00 +15°C° 0 mm 1 m/s 742 mmHg 71%
17:00 +14°C° 0 mm 1 m/s 742 mmHg 77%
18:00 +13°C° 0 mm 1 m/s 742 mmHg 82%
19:00 +12°C° 0 mm 2 m/s 742 mmHg 88%
20:00 +10°C° 0 mm 2 m/s 742 mmHg 93%
21:00 +10°C° 0 mm 2 m/s 742 mmHg 94%
22:00 +9°C° 0 mm 2 m/s 742 mmHg 94%
23:00 +9°C° 0 mm 2 m/s 742 mmHg 95%

Depois de amanhã, 30 Setembro, Quarta-feira

Tempo Temperatura Precipitação Vento Pressão Humidade
00:00 +9°C° 0 mm 2 m/s 742 mmHg 93%
01:00 +9°C° 0 mm 2 m/s 742 mmHg 91%
02:00 +9°C° 0 mm 2 m/s 741 mmHg 89%
03:00 +9°C° 0 mm 2 m/s 741 mmHg 87%
04:00 +8°C° 0 mm 2 m/s 741 mmHg 84%
05:00 +8°C° 0 mm 2 m/s 741 mmHg 82%
06:00 +9°C° 0 mm 2 m/s 741 mmHg 76%
07:00 +10°C° 0 mm 3 m/s 741 mmHg 71%
08:00 +10°C° 0 mm 3 m/s 741 mmHg 65%
09:00 +12°C° 0 mm 3 m/s 741 mmHg 60%
10:00 +13°C° 0 mm 3 m/s 741 mmHg 56%
11:00 +16°C° 0 mm 3 m/s 741 mmHg 51%
12:00 +16°C° 0 mm 3 m/s 741 mmHg 51%
13:00 +16°C° 0 mm 3 m/s 741 mmHg 51%
14:00 +17°C° 0 mm 4 m/s 741 mmHg 51%
15:00 +16°C° 0 mm 3 m/s 741 mmHg 56%
16:00 +14°C° 0 mm 3 m/s 741 mmHg 61%
17:00 +13°C° 0 mm 3 m/s 741 mmHg 67%
18:00 +12°C° 0 mm 3 m/s 741 mmHg 69%
19:00 +11°C° 0 mm 3 m/s 741 mmHg 71%
20:00 +10°C° 0 mm 3 m/s 742 mmHg 74%
21:00 +10°C° 0 mm 3 m/s 741 mmHg 73%
22:00 +10°C° 0 mm 3 m/s 741 mmHg 72%
23:00 +10°C° 0 mm 3 m/s 741 mmHg 71%

1 Outubro, Quinta-feira

Tempo Temperatura Precipitação Vento Pressão Humidade
00:00 +9°C° 0 mm 3 m/s 741 mmHg 72%
01:00 +9°C° 0 mm 3 m/s 741 mmHg 73%
02:00 +9°C° 0 mm 3 m/s 741 mmHg 73%
03:00 +8°C° 0 mm 3 m/s 741 mmHg 76%
04:00 +8°C° 0 mm 3 m/s 741 mmHg 78%
05:00 +8°C° 0 mm 3 m/s 741 mmHg 80%
06:00 +8°C° 0 mm 3 m/s 741 mmHg 77%
07:00 +9°C° 0 mm 3 m/s 741 mmHg 74%
08:00 +10°C° 0 mm 4 m/s 741 mmHg 71%
09:00 +11°C° 0 mm 4 m/s 741 mmHg 66%
10:00 +13°C° 0 mm 4 m/s 741 mmHg 60%
11:00 +15°C° 0 mm 4 m/s 741 mmHg 55%
12:00 +15°C° 0 mm 4 m/s 741 mmHg 54%
13:00 +15°C° 0 mm 4 m/s 741 mmHg 52%
14:00 +17°C° 0 mm 4 m/s 741 mmHg 50%
15:00 +15°C° 0 mm 4 m/s 741 mmHg 55%
16:00 +14°C° 0 mm 3 m/s 741 mmHg 60%
17:00 +13°C° 0 mm 3 m/s 741 mmHg 65%
18:00 +12°C° 0 mm 3 m/s 741 mmHg 65%
19:00 +12°C° 0 mm 3 m/s 741 mmHg 66%
20:00 +11°C° 0 mm 4 m/s 741 mmHg 67%
21:00 +11°C° 0 mm 4 m/s 741 mmHg 67%
22:00 +10°C° 0 mm 4 m/s 741 mmHg 66%
23:00 +10°C° 0 mm 4 m/s 741 mmHg 66%

2 Outubro, Sexta-feira

Tempo Temperatura Precipitação Vento Pressão Humidade
00:00 +10°C° 0 mm 3 m/s 741 mmHg 66%
01:00 +10°C° 0 mm 3 m/s 741 mmHg 67%
02:00 +9°C° 0 mm 3 m/s 741 mmHg 68%
03:00 +9°C° 0 mm 3 m/s 741 mmHg 69%
04:00 +9°C° 0 mm 3 m/s 741 mmHg 71%
05:00 +8°C° 0 mm 4 m/s 741 mmHg 72%
06:00 +8°C° 0 mm 4 m/s 741 mmHg 70%
07:00 +8°C° 0 mm 4 m/s 741 mmHg 68%
08:00 +10°C° 0 mm 4 m/s 741 mmHg 67%
09:00 +11°C° 0 mm 4 m/s 741 mmHg 63%
10:00 +12°C° 0 mm 4 m/s 741 mmHg 59%
11:00 +14°C° 0 mm 5 m/s 741 mmHg 56%
12:00 +14°C° 0 mm 5 m/s 741 mmHg 55%
13:00 +15°C° 0 mm 5 m/s 741 mmHg 53%
14:00 +15°C° 0 mm 5 m/s 741 mmHg 52%
15:00 +14°C° 0 mm 4 m/s 741 mmHg 57%
16:00 +13°C° 0 mm 3 m/s 741 mmHg 62%
17:00 +12°C° 0 mm 3 m/s 741 mmHg 67%
18:00 +12°C° 0 mm 3 m/s 741 mmHg 68%
19:00 +12°C° 0 mm 4 m/s 741 mmHg 70%
20:00 +10°C° 0 mm 5 m/s 741 mmHg 72%
21:00 +11°C° 0 mm 4 m/s 741 mmHg 72%
22:00 +11°C° 0 mm 4 m/s 741 mmHg 72%
23:00 +11°C° 0 mm 3 m/s 741 mmHg 72%

3 Outubro, Sábado

Tempo Temperatura Precipitação Vento Pressão Humidade
00:00 +11°C° 0 mm 3 m/s 741 mmHg 72%
01:00 +11°C° 0 mm 4 m/s 741 mmHg 72%
02:00 +11°C° 0 mm 4 m/s 741 mmHg 73%
03:00 +11°C° 0 mm 4 m/s 741 mmHg 77%
04:00 +11°C° 0 mm 3 m/s 741 mmHg 80%
05:00 +11°C° 0 mm 3 m/s 741 mmHg 84%
06:00 +11°C° 0 mm 3 m/s 741 mmHg 83%
07:00 +11°C° 0 mm 3 m/s 741 mmHg 83%
08:00 +11°C° 0 mm 4 m/s 741 mmHg 82%
09:00 +11°C° 0 mm 4 m/s 741 mmHg 81%
10:00 +11°C° 0 mm 4 m/s 741 mmHg 80%
11:00 +11°C° 0 mm 4 m/s 741 mmHg 80%
12:00 +11°C° 0.1 mm 4 m/s 740 mmHg 81%
13:00 +11°C° 0.1 mm 4 m/s 740 mmHg 83%
14:00 +11°C° 0.1 mm 4 m/s 740 mmHg 85%
15:00 +11°C° 0.5 mm 4 m/s 740 mmHg 87%
16:00 +10°C° 0.5 mm 4 m/s 740 mmHg 89%
17:00 +10°C° 0.5 mm 4 m/s 740 mmHg 91%
18:00 +10°C° 0.6 mm 4 m/s 740 mmHg 92%
19:00 +10°C° 0.6 mm 4 m/s 740 mmHg 93%
20:00 +10°C° 0.6 mm 4 m/s 740 mmHg 93%
21:00 +10°C° 0.3 mm 3 m/s 740 mmHg 93%
22:00 +10°C° 0.3 mm 3 m/s 740 mmHg 94%
23:00 +10°C° 0.3 mm 3 m/s 740 mmHg 94%
Mostrar mais